This is the latest recevied weather packets stored in our database for station/object KJ6BBX. If no packets are shown the sender has not sent any weather packets the latest 10 day(s).
| Time | Temp. | Humidity | Pressure | Rain* | Wind** | Luminosity | Snow |
|---|---|---|---|---|---|---|---|
| 1777780214 | 15.56° C | 88% | 1004 hPa | 0 mm | - | 0 W/m² | - |
| 1777779314 | 15.56° C | 86% | 1003.7 hPa | 0 mm | - | 0 W/m² | - |
| 1777778414 | 16.11° C | 85% | 1003.6 hPa | 0 mm | - | 0 W/m² | - |
| 1777777514 | 16.67° C | 83% | 1003.1 hPa | 0 mm | - | 0 W/m² | - |
| 1777776614 | 16.67° C | 82% | 1003 hPa | 0 mm | - | 0 W/m² | - |
| 1777775713 | 17.22° C | 80% | 1003 hPa | 0 mm | - | 2 W/m² | - |
| 1777774814 | 17.78° C | 79% | 1002.8 hPa | 0 mm | - | 8 W/m² | - |
| 1777773915 | 18.33° C | 76% | 1002.5 hPa | 0 mm | - | 15 W/m² | - |
| 1777773014 | 19.44° C | 74% | 1002.5 hPa | 0 mm | - | 21 W/m² | - |
| 1777772114 | 20° C | 72% | 1002.4 hPa | 0 mm | - | 27 W/m² | - |
| 1777771214 | 20.56° C | 70% | 1002.4 hPa | 0 mm | - | 31 W/m² | - |
| 1777770314 | 21.11° C | 69% | 1002.4 hPa | 0 mm | - | 35 W/m² | - |
| 1777769414 | 21.67° C | 68% | 1002.6 hPa | 0 mm | - | 123 W/m² | - |
| 1777768514 | 22.22° C | 65% | 1002.5 hPa | 0 mm | - | 160 W/m² | - |
| 1777767614 | 22.78° C | 64% | 1002.3 hPa | 0 mm | - | 167 W/m² | - |
| 1777766714 | 23.89° C | 62% | 1002.3 hPa | 0 mm | - | 217 W/m² | - |
| 1777765814 | 23.33° C | 64% | 1002.5 hPa | 0 mm | - | 255 W/m² | - |
| 1777764914 | 23.33° C | 63% | 1002.7 hPa | 0 mm | - | 303 W/m² | - |
| 1777764014 | 23.89° C | 62% | 1002.8 hPa | 0 mm | - | 347 W/m² | - |
| 1777763114 | 23.89° C | 62% | 1002.9 hPa | 0 mm | - | 369 W/m² | - |
| 1777762214 | 23.89° C | 62% | 1003.1 hPa | 0 mm | - | 320 W/m² | - |
| 1777761314 | 23.89° C | 62% | 1003.5 hPa | 0 mm | - | 422 W/m² | - |
| 1777760414 | 23.89° C | 62% | 1003.7 hPa | 0 mm | - | 459 W/m² | - |
| 1777759514 | 25.56° C | 59% | 1003.9 hPa | 0 mm | - | 484 W/m² | - |
| 1777758614 | 25.56° C | 57% | 1004.2 hPa | 0 mm | - | 475 W/m² | - |
* Rain since midnight (hover to see other rain measurements)
** Current wind speed in m/s (hover to see current wind gust speed)